iso_date,epoch_date,Year,Hour,Min,DOY,POS_DOY,Lat,Lon,BP,Ts,Ta,has_bp,has_ts,has_ta,BuoyID,Buoy_Type,Buoy_Owner,Logistics,Hemisphere
2018-03-29T09:00:00Z,1522314000,2018,9,0,88.375,88.375,-66.997,-173.825,1003.9,-0.68,-999.0,yes,yes,no,300234065253020,BD2GI,AOML,Palmer,South
2018-03-29T10:00:28Z,1522317629,2018,10,0,88.417,88.417,-67.0002,-173.8296,1003.9,-0.64,-999.0,yes,yes,no,300234065253020,BD2GI,AOML,Palmer,South
2018-03-29T10:59:31Z,1522321171,2018,11,0,88.458,88.458,-67.0034,-173.8296,1003.0,-0.68,-999.0,yes,yes,no,300234065253020,BD2GI,AOML,Palmer,South
2018-03-29T12:00:00Z,1522324800,2018,12,0,88.5,88.5,-67.0078,-173.8222,1002.0,-0.68,-999.0,yes,yes,no,300234065253020,BD2GI,AOML,Palmer,South
2018-03-29T13:00:28Z,1522328429,2018,13,0,88.542,88.542,-67.0104,-173.8098,1001.2,-0.68,-999.0,yes,yes,no,300234065253020,BD2GI,AOML,Palmer,South
2018-03-29T13:59:31Z,1522331971,2018,14,0,88.583,88.583,-67.0116,-173.7968,1000.7,-0.68,-999.0,yes,yes,no,300234065253020,BD2GI,AOML,Palmer,South
2018-03-29T15:00:00Z,1522335600,2018,15,0,88.625,88.625,-67.01,-173.782,1000.3,-0.68,-999.0,yes,yes,no,300234065253020,BD2GI,AOML,Palmer,South
2018-03-29T16:00:28Z,1522339229,2018,16,0,88.667,88.667,-67.0062,-173.7696,999.6,-0.68,-999.0,yes,yes,no,300234065253020,BD2GI,AOML,Palmer,South
2018-03-29T16:59:31Z,1522342771,2018,17,0,88.708,88.708,-67.0024,-173.7594,998.9,-0.64,-999.0,yes,yes,no,300234065253020,BD2GI,AOML,Palmer,South
2018-03-29T18:00:00Z,1522346400,2018,18,0,88.75,88.75,-66.9978,-173.7536,998.3,-0.64,-999.0,yes,yes,no,300234065253020,BD2GI,AOML,Palmer,South
2018-03-29T19:00:28Z,1522350029,2018,19,0,88.792,88.792,-66.9916,-173.7562,998.0,-0.64,-999.0,yes,yes,no,300234065253020,BD2GI,AOML,Palmer,South
2018-03-29T19:59:31Z,1522353571,2018,20,0,88.833,88.833,-66.9872,-173.7644,997.6,-0.64,-999.0,yes,yes,no,300234065253020,BD2GI,AOML,Palmer,South
2018-03-29T21:00:00Z,1522357200,2018,21,0,88.875,88.875,-66.9846,-173.7758,997.6,-0.61,-999.0,yes,yes,no,300234065253020,BD2GI,AOML,Palmer,South
2018-03-29T22:00:28Z,1522360829,2018,22,0,88.917,88.917,-66.9846,-173.7866,998.1,-0.61,-999.0,yes,yes,no,300234065253020,BD2GI,AOML,Palmer,South
2018-03-29T22:59:31Z,1522364371,2018,23,0,88.958,88.958,-66.9856,-173.7954,998.1,-0.64,-999.0,yes,yes,no,300234065253020,BD2GI,AOML,Palmer,South
2018-03-30T00:00:00Z,1522368000,2018,0,0,89.0,89.0,-66.9878,-173.7994,998.5,-0.64,-999.0,yes,yes,no,300234065253020,BD2GI,AOML,Palmer,South
2018-03-30T01:00:28Z,1522371629,2018,1,0,89.042,89.042,-66.9906,-173.795,998.7,-0.64,-999.0,yes,yes,no,300234065253020,BD2GI,AOML,Palmer,South
2018-03-30T01:59:31Z,1522375171,2018,2,0,89.083,89.083,-66.9926,-173.7876,998.6,-0.64,-999.0,yes,yes,no,300234065253020,BD2GI,AOML,Palmer,South
2018-03-30T03:00:00Z,1522378800,2018,3,0,89.125,89.125,-66.9928,-173.7778,998.3,-0.64,-999.0,yes,yes,no,300234065253020,BD2GI,AOML,Palmer,South
2018-03-30T04:00:28Z,1522382429,2018,4,0,89.167,89.167,-66.9912,-173.7696,998.4,-0.68,-999.0,yes,yes,no,300234065253020,BD2GI,AOML,Palmer,South
2018-03-30T04:59:31Z,1522385971,2018,5,0,89.208,89.208,-66.988,-173.76,998.1,-0.68,-999.0,yes,yes,no,300234065253020,BD2GI,AOML,Palmer,South
2018-03-30T06:00:00Z,1522389600,2018,6,0,89.25,89.25,-66.9838,-173.7528,997.9,-0.68,-999.0,yes,yes,no,300234065253020,BD2GI,AOML,Palmer,South
2018-03-30T07:00:28Z,1522393229,2018,7,0,89.292,89.292,-66.9788,-173.7498,997.6,-0.68,-999.0,yes,yes,no,300234065253020,BD2GI,AOML,Palmer,South
2018-03-30T07:59:31Z,1522396771,2018,8,0,89.333,89.333,-66.975,-173.7504,997.5,-0.68,-999.0,yes,yes,no,300234065253020,BD2GI,AOML,Palmer,South
2018-03-30T09:00:00Z,1522400400,2018,9,0,89.375,89.375,-66.971,-173.7544,997.4,-0.68,-999.0,yes,yes,no,300234065253020,BD2GI,AOML,Palmer,South
2018-03-30T10:00:28Z,1522404029,2018,10,0,89.417,89.417,-66.9684,-173.7608,997.7,-0.68,-999.0,yes,yes,no,300234065253020,BD2GI,AOML,Palmer,South
2018-03-30T10:59:31Z,1522407571,2018,11,0,89.458,89.458,-66.9672,-173.7672,997.7,-0.68,-999.0,yes,yes,no,300234065253020,BD2GI,AOML,Palmer,South
2018-03-30T12:00:00Z,1522411200,2018,12,0,89.5,89.5,-66.9682,-173.771,997.4,-0.68,-999.0,yes,yes,no,300234065253020,BD2GI,AOML,Palmer,South
2018-03-30T13:00:28Z,1522414829,2018,13,0,89.542,89.542,-66.9704,-173.7702,997.3,-0.68,-999.0,yes,yes,no,300234065253020,BD2GI,AOML,Palmer,South
2018-03-30T13:59:31Z,1522418371,2018,14,0,89.583,89.583,-66.972,-173.764,997.3,-0.68,-999.0,yes,yes,no,300234065253020,BD2GI,AOML,Palmer,South
2018-03-30T15:00:00Z,1522422000,2018,15,0,89.625,89.625,-66.9734,-173.7548,997.0,-0.68,-999.0,yes,yes,no,300234065253020,BD2GI,AOML,Palmer,South
2018-03-30T16:00:28Z,1522425629,2018,16,0,89.667,89.667,-66.9734,-173.7452,996.9,-0.68,-999.0,yes,yes,no,300234065253020,BD2GI,AOML,Palmer,South
2018-03-30T16:59:31Z,1522429171,2018,17,0,89.708,89.708,-66.9712,-173.7328,996.7,-0.68,-999.0,yes,yes,no,300234065253020,BD2GI,AOML,Palmer,South
2018-03-30T18:00:00Z,1522432800,2018,18,0,89.75,89.75,-66.969,-173.7262,996.5,-0.68,-999.0,yes,yes,no,300234065253020,BD2GI,AOML,Palmer,South
2018-03-30T19:00:28Z,1522436429,2018,19,0,89.792,89.792,-66.9658,-173.7224,996.4,-0.68,-999.0,yes,yes,no,300234065253020,BD2GI,AOML,Palmer,South
2018-03-30T19:59:31Z,1522439971,2018,20,0,89.833,89.833,-66.9628,-173.7202,996.5,-0.68,-999.0,yes,yes,no,300234065253020,BD2GI,AOML,Palmer,South
2018-03-30T21:00:00Z,1522443600,2018,21,0,89.875,89.875,-66.9604,-173.7216,996.6,-0.68,-999.0,yes,yes,no,300234065253020,BD2GI,AOML,Palmer,South
2018-03-30T22:00:28Z,1522447229,2018,22,0,89.917,89.917,-66.9586,-173.7266,996.7,-0.68,-999.0,yes,yes,no,300234065253020,BD2GI,AOML,Palmer,South
2018-03-30T22:59:31Z,1522450771,2018,23,0,89.958,89.958,-66.9584,-173.7348,996.9,-0.68,-999.0,yes,yes,no,300234065253020,BD2GI,AOML,Palmer,South
2018-03-31T00:00:00Z,1522454400,2018,0,0,90.0,90.0,-66.96,-173.7394,996.9,-0.68,-999.0,yes,yes,no,300234065253020,BD2GI,AOML,Palmer,South
2018-03-31T01:00:28Z,1522458029,2018,1,0,90.042,90.042,-66.9624,-173.7398,997.3,-0.71,-999.0,yes,yes,no,300234065253020,BD2GI,AOML,Palmer,South
2018-03-31T01:59:31Z,1522461571,2018,2,0,90.083,90.083,-66.9648,-173.7358,997.8,-0.71,-999.0,yes,yes,no,300234065253020,BD2GI,AOML,Palmer,South
2018-03-31T03:00:00Z,1522465200,2018,3,0,90.125,90.125,-66.9668,-173.7286,997.3,-0.68,-999.0,yes,yes,no,300234065253020,BD2GI,AOML,Palmer,South
2018-03-31T04:00:28Z,1522468829,2018,4,0,90.167,90.167,-66.9672,-173.7208,999.6,-0.71,-999.0,yes,yes,no,300234065253020,BD2GI,AOML,Palmer,South
2018-03-31T04:59:31Z,1522472371,2018,5,0,90.208,90.208,-66.9662,-173.715,999.8,-0.68,-999.0,yes,yes,no,300234065253020,BD2GI,AOML,Palmer,South
2018-03-31T06:00:00Z,1522476000,2018,6,0,90.25,90.25,-66.9642,-173.7094,999.8,-0.64,-999.0,yes,yes,no,300234065253020,BD2GI,AOML,Palmer,South
2018-03-31T07:00:28Z,1522479629,2018,7,0,90.292,90.292,-66.9614,-173.706,999.6,-0.68,-999.0,yes,yes,no,300234065253020,BD2GI,AOML,Palmer,South
2018-03-31T07:59:31Z,1522483171,2018,8,0,90.333,90.333,-66.9596,-173.7064,999.4,-0.68,-999.0,yes,yes,no,300234065253020,BD2GI,AOML,Palmer,South
2018-03-31T09:00:00Z,1522486800,2018,9,0,90.375,90.375,-66.9576,-173.7092,998.9,-0.71,-999.0,yes,yes,no,300234065253020,BD2GI,AOML,Palmer,South
2018-03-31T10:00:28Z,1522490429,2018,10,0,90.417,90.417,-66.9556,-173.713,998.7,-0.64,-999.0,yes,yes,no,300234065253020,BD2GI,AOML,Palmer,South
2018-03-31T10:59:31Z,1522493971,2018,11,0,90.458,90.458,-66.954,-173.7186,998.5,-0.71,-999.0,yes,yes,no,300234065253020,BD2GI,AOML,Palmer,South
2018-03-31T12:00:00Z,1522497600,2018,12,0,90.5,90.5,-66.9538,-173.7258,998.3,-0.71,-999.0,yes,yes,no,300234065253020,BD2GI,AOML,Palmer,South
2018-03-31T13:00:28Z,1522501229,2018,13,0,90.542,90.542,-66.9542,-173.7318,998.2,-0.68,-999.0,yes,yes,no,300234065253020,BD2GI,AOML,Palmer,South
2018-03-31T13:59:31Z,1522504771,2018,14,0,90.583,90.583,-66.9554,-173.7346,998.0,-0.68,-999.0,yes,yes,no,300234065253020,BD2GI,AOML,Palmer,South
2018-03-31T15:00:00Z,1522508400,2018,15,0,90.625,90.625,-66.9562,-173.7338,997.7,-0.64,-999.0,yes,yes,no,300234065253020,BD2GI,AOML,Palmer,South
2018-03-31T16:00:28Z,1522512029,2018,16,0,90.667,90.667,-66.956,-173.7334,998.6,-0.68,-999.0,yes,yes,no,300234065253020,BD2GI,AOML,Palmer,South
2018-03-31T16:59:31Z,1522515571,2018,17,0,90.708,90.708,-66.9562,-173.7322,998.3,-0.68,-999.0,yes,yes,no,300234065253020,BD2GI,AOML,Palmer,South
2018-03-31T18:00:00Z,1522519200,2018,18,0,90.75,90.75,-66.955,-173.7306,997.7,-0.68,-999.0,yes,yes,no,300234065253020,BD2GI,AOML,Palmer,South
2018-03-31T19:00:28Z,1522522829,2018,19,0,90.792,90.792,-66.9532,-173.729,997.7,-0.68,-999.0,yes,yes,no,300234065253020,BD2GI,AOML,Palmer,South
2018-03-31T19:59:31Z,1522526371,2018,20,0,90.833,90.833,-66.9512,-173.7296,998.8,-0.68,-999.0,yes,yes,no,300234065253020,BD2GI,AOML,Palmer,South
2018-03-31T21:00:00Z,1522530000,2018,21,0,90.875,90.875,-66.9488,-173.7342,998.7,-0.68,-999.0,yes,yes,no,300234065253020,BD2GI,AOML,Palmer,South
2018-03-31T22:00:28Z,1522533629,2018,22,0,90.917,90.917,-66.947,-173.7426,1000.2,-0.64,-999.0,yes,yes,no,300234065253020,BD2GI,AOML,Palmer,South
2018-03-31T22:59:31Z,1522537171,2018,23,0,90.958,90.958,-66.9454,-173.7552,1000.0,-0.64,-999.0,yes,yes,no,300234065253020,BD2GI,AOML,Palmer,South
2018-04-01T00:00:00Z,1522540800,2018,0,0,91.0,91.0,-66.9446,-173.7672,999.8,-0.64,-999.0,yes,yes,no,300234065253020,BD2GI,AOML,Palmer,South
2018-04-01T01:00:28Z,1522544429,2018,1,0,91.042,91.042,-66.9456,-173.7788,998.6,-0.64,-999.0,yes,yes,no,300234065253020,BD2GI,AOML,Palmer,South
2018-04-01T01:59:31Z,1522547971,2018,2,0,91.083,91.083,-66.9472,-173.789,997.2,-0.64,-999.0,yes,yes,no,300234065253020,BD2GI,AOML,Palmer,South
2018-04-01T03:00:00Z,1522551600,2018,3,0,91.125,91.125,-66.9502,-173.796,997.0,-0.64,-999.0,yes,yes,no,300234065253020,BD2GI,AOML,Palmer,South
2018-04-01T04:00:28Z,1522555229,2018,4,0,91.167,91.167,-66.9532,-173.7982,996.9,-0.64,-999.0,yes,yes,no,300234065253020,BD2GI,AOML,Palmer,South
2018-04-01T04:59:31Z,1522558771,2018,5,0,91.208,91.208,-66.9556,-173.8014,999.5,-0.61,-999.0,yes,yes,no,300234065253020,BD2GI,AOML,Palmer,South
2018-04-01T06:00:00Z,1522562400,2018,6,0,91.25,91.25,-66.9576,-173.804,1000.1,-0.61,-999.0,yes,yes,no,300234065253020,BD2GI,AOML,Palmer,South
2018-04-01T07:00:28Z,1522566029,2018,7,0,91.292,91.292,-66.9592,-173.806,997.4,-0.61,-999.0,yes,yes,no,300234065253020,BD2GI,AOML,Palmer,South
2018-04-01T07:59:31Z,1522569571,2018,8,0,91.333,91.333,-66.9604,-173.8064,995.2,-0.64,-999.0,yes,yes,no,300234065253020,BD2GI,AOML,Palmer,South
2018-04-01T09:00:00Z,1522573200,2018,9,0,91.375,91.375,-66.9618,-173.8092,994.4,-0.61,-999.0,yes,yes,no,300234065253020,BD2GI,AOML,Palmer,South
2018-04-01T10:00:28Z,1522576829,2018,10,0,91.417,91.417,-66.9636,-173.8106,993.6,-0.64,-999.0,yes,yes,no,300234065253020,BD2GI,AOML,Palmer,South
2018-04-01T10:59:31Z,1522580371,2018,11,0,91.458,91.458,-66.9636,-173.8106,992.5,-0.64,-999.0,yes,yes,no,300234065253020,BD2GI,AOML,Palmer,South
2018-04-01T12:00:00Z,1522584000,2018,12,0,91.5,91.5,-66.9636,-173.8106,991.7,-0.64,-999.0,yes,yes,no,300234065253020,BD2GI,AOML,Palmer,South
2018-04-01T13:00:28Z,1522587629,2018,13,0,91.542,91.542,-66.9714,-173.8326,990.0,-0.64,-999.0,yes,yes,no,300234065253020,BD2GI,AOML,Palmer,South
2018-04-01T13:59:31Z,1522591171,2018,14,0,91.583,91.583,-66.9752,-173.8392,988.9,-0.64,-999.0,yes,yes,no,300234065253020,BD2GI,AOML,Palmer,South
2018-04-01T15:00:00Z,1522594800,2018,15,0,91.625,91.625,-66.9796,-173.8414,987.9,-0.64,-999.0,yes,yes,no,300234065253020,BD2GI,AOML,Palmer,South
2018-04-01T16:00:28Z,1522598429,2018,16,0,91.667,91.667,-66.9842,-173.8398,987.2,-0.68,-999.0,yes,yes,no,300234065253020,BD2GI,AOML,Palmer,South
2018-04-01T16:59:31Z,1522601971,2018,17,0,91.708,91.708,-66.9892,-173.8388,986.2,-0.64,-999.0,yes,yes,no,300234065253020,BD2GI,AOML,Palmer,South
2018-04-01T18:00:00Z,1522605600,2018,18,0,91.75,91.75,-66.9918,-173.842,985.1,-0.68,-999.0,yes,yes,no,300234065253020,BD2GI,AOML,Palmer,South
2018-04-01T19:00:28Z,1522609229,2018,19,0,91.792,91.792,-66.998,-173.8388,983.6,-0.68,-999.0,yes,yes,no,300234065253020,BD2GI,AOML,Palmer,South
2018-04-01T19:59:31Z,1522612771,2018,20,0,91.833,91.833,-67.0024,-173.838,982.3,-0.68,-999.0,yes,yes,no,300234065253020,BD2GI,AOML,Palmer,South
2018-04-01T21:00:00Z,1522616400,2018,21,0,91.875,91.875,-67.006,-173.835,981.2,-0.68,-999.0,yes,yes,no,300234065253020,BD2GI,AOML,Palmer,South
2018-04-01T22:00:28Z,1522620029,2018,22,0,91.917,91.917,-67.0082,-173.8326,980.4,-0.68,-999.0,yes,yes,no,300234065253020,BD2GI,AOML,Palmer,South
2018-04-01T22:59:31Z,1522623571,2018,23,0,91.958,91.958,-67.0096,-173.8314,979.2,-0.68,-999.0,yes,yes,no,300234065253020,BD2GI,AOML,Palmer,South
2018-04-02T00:00:00Z,1522627200,2018,0,0,92.0,92.0,-67.0108,-173.8318,978.1,-0.68,-999.0,yes,yes,no,300234065253020,BD2GI,AOML,Palmer,South
2018-04-02T01:00:28Z,1522630829,2018,1,0,92.042,92.042,-67.0118,-173.8332,977.3,-0.68,-999.0,yes,yes,no,300234065253020,BD2GI,AOML,Palmer,South
2018-04-02T01:59:31Z,1522634371,2018,2,0,92.083,92.083,-67.0124,-173.8324,976.8,-0.68,-999.0,yes,yes,no,300234065253020,BD2GI,AOML,Palmer,South
2018-04-02T03:00:00Z,1522638000,2018,3,0,92.125,92.125,-67.0134,-173.8326,975.9,-0.68,-999.0,yes,yes,no,300234065253020,BD2GI,AOML,Palmer,South
2018-04-02T04:00:28Z,1522641629,2018,4,0,92.167,92.167,-67.0146,-173.8308,975.5,-0.68,-999.0,yes,yes,no,300234065253020,BD2GI,AOML,Palmer,South
2018-04-02T04:59:31Z,1522645171,2018,5,0,92.208,92.208,-67.0154,-173.8276,975.0,-0.68,-999.0,yes,yes,no,300234065253020,BD2GI,AOML,Palmer,South
2018-04-02T06:00:00Z,1522648800,2018,6,0,92.25,92.25,-67.017,-173.8264,974.7,-0.68,-999.0,yes,yes,no,300234065253020,BD2GI,AOML,Palmer,South
2018-04-02T07:00:28Z,1522652429,2018,7,0,92.292,92.292,-67.0184,-173.8248,974.5,-0.68,-999.0,yes,yes,no,300234065253020,BD2GI,AOML,Palmer,South
2018-04-02T07:59:31Z,1522655971,2018,8,0,92.333,92.333,-67.0194,-173.823,974.4,-0.68,-999.0,yes,yes,no,300234065253020,BD2GI,AOML,Palmer,South
2018-04-02T09:00:00Z,1522659600,2018,9,0,92.375,92.375,-67.021,-173.8222,974.3,-0.68,-999.0,yes,yes,no,300234065253020,BD2GI,AOML,Palmer,South
2018-04-02T10:00:28Z,1522663229,2018,10,0,92.417,92.417,-67.0226,-173.8206,974.6,-0.68,-999.0,yes,yes,no,300234065253020,BD2GI,AOML,Palmer,South
2018-04-02T10:59:31Z,1522666771,2018,11,0,92.458,92.458,-67.0238,-173.8178,974.5,-0.68,-999.0,yes,yes,no,300234065253020,BD2GI,AOML,Palmer,South
2018-04-02T12:00:00Z,1522670400,2018,12,0,92.5,92.5,-67.0238,-173.8144,974.5,-0.68,-999.0,yes,yes,no,300234065253020,BD2GI,AOML,Palmer,South
2018-04-02T13:00:28Z,1522674029,2018,13,0,92.542,92.542,-67.024,-173.8122,974.4,-0.68,-999.0,yes,yes,no,300234065253020,BD2GI,AOML,Palmer,South
2018-04-02T13:59:31Z,1522677571,2018,14,0,92.583,92.583,-67.0234,-173.8102,974.8,-0.71,-999.0,yes,yes,no,300234065253020,BD2GI,AOML,Palmer,South
2018-04-02T15:00:00Z,1522681200,2018,15,0,92.625,92.625,-67.0218,-173.8082,975.2,-0.68,-999.0,yes,yes,no,300234065253020,BD2GI,AOML,Palmer,South
2018-04-02T16:00:28Z,1522684829,2018,16,0,92.667,92.667,-67.0218,-173.807,975.3,-0.68,-999.0,yes,yes,no,300234065253020,BD2GI,AOML,Palmer,South
2018-04-02T16:59:31Z,1522688371,2018,17,0,92.708,92.708,-67.0206,-173.806,975.8,-0.68,-999.0,yes,yes,no,300234065253020,BD2GI,AOML,Palmer,South
2018-04-02T18:00:00Z,1522692000,2018,18,0,92.75,92.75,-67.0208,-173.8062,976.5,-0.68,-999.0,yes,yes,no,300234065253020,BD2GI,AOML,Palmer,South
2018-04-02T19:00:28Z,1522695629,2018,19,0,92.792,92.792,-67.021,-173.8056,976.7,-0.68,-999.0,yes,yes,no,300234065253020,BD2GI,AOML,Palmer,South
2018-04-02T19:59:31Z,1522699171,2018,20,0,92.833,92.833,-67.0216,-173.8088,977.3,-0.68,-999.0,yes,yes,no,300234065253020,BD2GI,AOML,Palmer,South
2018-04-02T21:00:00Z,1522702800,2018,21,0,92.875,92.875,-67.0216,-173.8088,977.6,-0.68,-999.0,yes,yes,no,300234065253020,BD2GI,AOML,Palmer,South
2018-04-02T22:00:28Z,1522706429,2018,22,0,92.917,92.917,-67.023,-173.8108,977.8,-0.68,-999.0,yes,yes,no,300234065253020,BD2GI,AOML,Palmer,South
2018-04-02T22:59:31Z,1522709971,2018,23,0,92.958,92.958,-67.0242,-173.81,978.2,-0.68,-999.0,yes,yes,no,300234065253020,BD2GI,AOML,Palmer,South
2018-04-03T00:00:00Z,1522713600,2018,0,0,93.0,93.0,-67.0254,-173.8072,978.4,-0.68,-999.0,yes,yes,no,300234065253020,BD2GI,AOML,Palmer,South
2018-04-03T01:00:28Z,1522717229,2018,1,0,93.042,93.042,-67.027,-173.8042,978.6,-0.68,-999.0,yes,yes,no,300234065253020,BD2GI,AOML,Palmer,South
2018-04-03T01:59:31Z,1522720771,2018,2,0,93.083,93.083,-67.027,-173.8012,978.1,-0.68,-999.0,yes,yes,no,300234065253020,BD2GI,AOML,Palmer,South
2018-04-03T03:00:00Z,1522724400,2018,3,0,93.125,93.125,-67.0262,-173.7964,977.9,-0.68,-999.0,yes,yes,no,300234065253020,BD2GI,AOML,Palmer,South
2018-04-03T04:00:28Z,1522728029,2018,4,0,93.167,93.167,-67.026,-173.7918,977.8,-0.68,-999.0,yes,yes,no,300234065253020,BD2GI,AOML,Palmer,South
2018-04-03T04:59:31Z,1522731571,2018,5,0,93.208,93.208,-67.026,-173.7884,977.7,-0.68,-999.0,yes,yes,no,300234065253020,BD2GI,AOML,Palmer,South
2018-04-03T06:00:00Z,1522735200,2018,6,0,93.25,93.25,-67.0266,-173.7844,977.4,-0.68,-999.0,yes,yes,no,300234065253020,BD2GI,AOML,Palmer,South
2018-04-03T07:00:28Z,1522738829,2018,7,0,93.292,93.292,-67.0258,-173.7798,976.9,-0.68,-999.0,yes,yes,no,300234065253020,BD2GI,AOML,Palmer,South
2018-04-03T07:59:31Z,1522742371,2018,8,0,93.333,93.333,-67.0244,-173.7794,976.1,-0.68,-999.0,yes,yes,no,300234065253020,BD2GI,AOML,Palmer,South
2018-04-03T09:00:00Z,1522746000,2018,9,0,93.375,93.375,-67.026,-173.7822,975.8,-0.68,-999.0,yes,yes,no,300234065253020,BD2GI,AOML,Palmer,South
2018-04-03T10:00:28Z,1522749629,2018,10,0,93.417,93.417,-67.0278,-173.7816,975.3,-0.68,-999.0,yes,yes,no,300234065253020,BD2GI,AOML,Palmer,South
2018-04-03T10:59:31Z,1522753171,2018,11,0,93.458,93.458,-67.0304,-173.7822,974.2,-0.68,-999.0,yes,yes,no,300234065253020,BD2GI,AOML,Palmer,South
2018-04-03T12:00:00Z,1522756800,2018,12,0,93.5,93.5,-67.0336,-173.777,973.5,-0.68,-999.0,yes,yes,no,300234065253020,BD2GI,AOML,Palmer,South
2018-04-03T13:00:28Z,1522760429,2018,13,0,93.542,93.542,-67.0372,-173.7724,972.6,-0.68,-999.0,yes,yes,no,300234065253020,BD2GI,AOML,Palmer,South
2018-04-03T13:59:31Z,1522763971,2018,14,0,93.583,93.583,-67.0386,-173.7652,971.7,-0.68,-999.0,yes,yes,no,300234065253020,BD2GI,AOML,Palmer,South
2018-04-03T15:00:00Z,1522767600,2018,15,0,93.625,93.625,-67.041,-173.7582,970.7,-0.68,-999.0,yes,yes,no,300234065253020,BD2GI,AOML,Palmer,South
2018-04-03T16:00:28Z,1522771229,2018,16,0,93.667,93.667,-67.0406,-173.7552,969.6,-0.68,-999.0,yes,yes,no,300234065253020,BD2GI,AOML,Palmer,South
2018-04-03T16:59:31Z,1522774771,2018,17,0,93.708,93.708,-67.0408,-173.7504,968.5,-0.68,-999.0,yes,yes,no,300234065253020,BD2GI,AOML,Palmer,South
2018-04-03T18:00:00Z,1522778400,2018,18,0,93.75,93.75,-67.0414,-173.7458,967.7,-0.68,-999.0,yes,yes,no,300234065253020,BD2GI,AOML,Palmer,South
2018-04-03T19:00:28Z,1522782029,2018,19,0,93.792,93.792,-67.0418,-173.7426,967.3,-0.68,-999.0,yes,yes,no,300234065253020,BD2GI,AOML,Palmer,South
2018-04-03T19:59:31Z,1522785571,2018,20,0,93.833,93.833,-67.0422,-173.739,966.6,-0.68,-999.0,yes,yes,no,300234065253020,BD2GI,AOML,Palmer,South
2018-04-03T21:00:00Z,1522789200,2018,21,0,93.875,93.875,-67.0434,-173.739,965.6,-0.68,-999.0,yes,yes,no,300234065253020,BD2GI,AOML,Palmer,South
2018-04-03T22:00:28Z,1522792829,2018,22,0,93.917,93.917,-67.0452,-173.7406,965.3,-0.68,-999.0,yes,yes,no,300234065253020,BD2GI,AOML,Palmer,South
2018-04-03T22:59:31Z,1522796371,2018,23,0,93.958,93.958,-67.0468,-173.7396,964.7,-0.68,-999.0,yes,yes,no,300234065253020,BD2GI,AOML,Palmer,South
2018-04-04T00:00:00Z,1522800000,2018,0,0,94.0,94.0,-67.049,-173.7404,964.1,-0.68,-999.0,yes,yes,no,300234065253020,BD2GI,AOML,Palmer,South
2018-04-04T01:00:28Z,1522803629,2018,1,0,94.042,94.042,-67.051,-173.7388,963.5,-0.68,-999.0,yes,yes,no,300234065253020,BD2GI,AOML,Palmer,South
2018-04-04T01:59:31Z,1522807171,2018,2,0,94.083,94.083,-67.0534,-173.739,963.1,-0.68,-999.0,yes,yes,no,300234065253020,BD2GI,AOML,Palmer,South
2018-04-04T03:00:00Z,1522810800,2018,3,0,94.125,94.125,-67.0566,-173.7374,962.5,-0.68,-999.0,yes,yes,no,300234065253020,BD2GI,AOML,Palmer,South
2018-04-04T04:00:28Z,1522814429,2018,4,0,94.167,94.167,-67.0586,-173.7322,962.4,-0.68,-999.0,yes,yes,no,300234065253020,BD2GI,AOML,Palmer,South
2018-04-04T04:59:31Z,1522817971,2018,5,0,94.208,94.208,-67.0592,-173.726,962.3,-0.68,-999.0,yes,yes,no,300234065253020,BD2GI,AOML,Palmer,South
2018-04-04T06:00:00Z,1522821600,2018,6,0,94.25,94.25,-67.0592,-173.7172,962.2,-0.68,-999.0,yes,yes,no,300234065253020,BD2GI,AOML,Palmer,South
2018-04-04T07:00:28Z,1522825229,2018,7,0,94.292,94.292,-67.0574,-173.7122,962.1,-0.68,-999.0,yes,yes,no,300234065253020,BD2GI,AOML,Palmer,South
2018-04-04T07:59:31Z,1522828771,2018,8,0,94.333,94.333,-67.0558,-173.708,962.2,-0.68,-999.0,yes,yes,no,300234065253020,BD2GI,AOML,Palmer,South
2018-04-04T09:00:00Z,1522832400,2018,9,0,94.375,94.375,-67.0548,-173.7056,962.0,-0.68,-999.0,yes,yes,no,300234065253020,BD2GI,AOML,Palmer,South
2018-04-04T10:00:28Z,1522836029,2018,10,0,94.417,94.417,-67.0542,-173.7042,962.0,-0.68,-999.0,yes,yes,no,300234065253020,BD2GI,AOML,Palmer,South
2018-04-04T10:59:31Z,1522839571,2018,11,0,94.458,94.458,-67.0538,-173.704,961.8,-0.68,-999.0,yes,yes,no,300234065253020,BD2GI,AOML,Palmer,South
2018-04-04T12:00:00Z,1522843200,2018,12,0,94.5,94.5,-67.0546,-173.7052,961.7,-0.68,-999.0,yes,yes,no,300234065253020,BD2GI,AOML,Palmer,South
2018-04-04T13:00:28Z,1522846829,2018,13,0,94.542,94.542,-67.0564,-173.7062,961.5,-0.68,-999.0,yes,yes,no,300234065253020,BD2GI,AOML,Palmer,South
2018-04-04T13:59:31Z,1522850371,2018,14,0,94.583,94.583,-67.059,-173.705,961.0,-0.68,-999.0,yes,yes,no,300234065253020,BD2GI,AOML,Palmer,South
2018-04-04T15:00:00Z,1522854000,2018,15,0,94.625,94.625,-67.0616,-173.7006,960.6,-0.68,-999.0,yes,yes,no,300234065253020,BD2GI,AOML,Palmer,South
2018-04-04T16:00:28Z,1522857629,2018,16,0,94.667,94.667,-67.0636,-173.6942,960.7,-0.68,-999.0,yes,yes,no,300234065253020,BD2GI,AOML,Palmer,South
2018-04-04T16:59:31Z,1522861171,2018,17,0,94.708,94.708,-67.065,-173.6878,960.6,-0.68,-999.0,yes,yes,no,300234065253020,BD2GI,AOML,Palmer,South
2018-04-04T18:00:00Z,1522864800,2018,18,0,94.75,94.75,-67.0662,-173.68,960.5,-0.68,-999.0,yes,yes,no,300234065253020,BD2GI,AOML,Palmer,South
2018-04-04T19:00:28Z,1522868429,2018,19,0,94.792,94.792,-67.0658,-173.6716,960.5,-0.68,-999.0,yes,yes,no,300234065253020,BD2GI,AOML,Palmer,South
2018-04-04T19:59:31Z,1522871971,2018,20,0,94.833,94.833,-67.0642,-173.666,960.8,-0.68,-999.0,yes,yes,no,300234065253020,BD2GI,AOML,Palmer,South
2018-04-04T21:00:00Z,1522875600,2018,21,0,94.875,94.875,-67.061,-173.6658,960.9,-0.68,-999.0,yes,yes,no,300234065253020,BD2GI,AOML,Palmer,South
2018-04-04T22:00:28Z,1522879229,2018,22,0,94.917,94.917,-67.0594,-173.667,961.0,-0.68,-999.0,yes,yes,no,300234065253020,BD2GI,AOML,Palmer,South
2018-04-04T22:59:31Z,1522882771,2018,23,0,94.958,94.958,-67.058,-173.672,961.1,-0.68,-999.0,yes,yes,no,300234065253020,BD2GI,AOML,Palmer,South
2018-04-05T00:00:00Z,1522886400,2018,0,0,95.0,95.0,-67.0574,-173.681,961.1,-0.68,-999.0,yes,yes,no,300234065253020,BD2GI,AOML,Palmer,South
2018-04-05T01:00:28Z,1522890029,2018,1,0,95.042,95.042,-67.0592,-173.6876,961.7,-0.68,-999.0,yes,yes,no,300234065253020,BD2GI,AOML,Palmer,South
2018-04-05T01:59:31Z,1522893571,2018,2,0,95.083,95.083,-67.061,-173.6918,961.7,-0.68,-999.0,yes,yes,no,300234065253020,BD2GI,AOML,Palmer,South
2018-04-05T03:00:00Z,1522897200,2018,3,0,95.125,95.125,-67.0628,-173.6922,962.2,-0.68,-999.0,yes,yes,no,300234065253020,BD2GI,AOML,Palmer,South
2018-04-05T04:00:28Z,1522900829,2018,4,0,95.167,95.167,-67.0638,-173.6942,962.6,-0.68,-999.0,yes,yes,no,300234065253020,BD2GI,AOML,Palmer,South
2018-04-05T04:59:31Z,1522904371,2018,5,0,95.208,95.208,-67.0646,-173.693,963.2,-0.68,-999.0,yes,yes,no,300234065253020,BD2GI,AOML,Palmer,South
2018-04-05T06:00:00Z,1522908000,2018,6,0,95.25,95.25,-67.065,-173.6898,963.7,-0.68,-999.0,yes,yes,no,300234065253020,BD2GI,AOML,Palmer,South